Theta_e
318 318 318 318 318 318 318 319 318 319 320 320 320 321 322 321 322 322 322 322 322 322 322 322 322 322 322 325 325 324 321 316 313 313 312 314 322 338 349 347 350 347 347 328 319 316 311 313 313 319 319 319 318 320 322 326 318 317 310 303 305 302 307 311 312 313 315 318 323 324 326 325 323 327 331 334 331 331 331 331 334 338 337 340 341 345 347 348
317 317 317 317 317 317 318 318 318 318 319 320 320 320 321 321 321 322 321 322 321 321 321 322 321 322 323 325 325 324 320 316 310 311 313 324 342 345 347 350 349 357 339 319 316 310 309 312 314 317 317 315 318 318 321 318 320 310 306 307 305 304 309 316 315 314 318 320 324 325 327 326 324 329 330 326 325 327 327 330 333 333 337 340 342 344 345 347
317 317 317 317 317 317 318 318 318 318 319 319 320 320 320 320 321 321 321 321 321 321 321 321 321 322 323 325 324 323 317 311 311 304 310 343 344 344 346 348 349 357 321 318 316 314 309 312 313 311 311 311 310 314 316 314 318 312 309 306 306 310 311 316 316 315 322 324 323 325 326 325 327 329 331 325 324 327 325 326 329 331 333 337 340 343 344 346
317 317 317 316 316 317 317 318 318 318 318 318 319 319 320 320 320 320 320 320 320 320 321 320 321 323 323 325 324 321 314 312 299 302 304 340 351 352 347 349 352 349 318 318 317 314 312 314 312 312 311 310 309 315 312 312 315 312 311 307 310 311 312 314 317 318 321 326 325 325 326 324 328 329 328 326 324 324 325 330 330 330 334 337 340 342 343 344
316 316 316 316 316 316 316 317 318 318 318 318 319 319 319 319 319 320 320 319 320 320 320 320 322 323 324 323 322 316 312 296 299 302 307 351 353 350 354 353 353 334 320 318 318 316 314 313 312 313 310 308 311 311 311 313 315 310 312 313 312 311 312 315 317 319 322 326 326 324 322 323 329 329 327 327 321 320 326 331 333 336 337 338 339 341 343 343
316 316 315 315 316 316 316 317 317 318 318 318 318 319 319 318 319 319 319 319 319 319 320 321 322 323 324 324 318 316 301 292 303 307 365 353 351 353 353 352 356 326 318 316 314 313 312 312 308 308 308 309 309 306 308 311 316 308 308 309 312 314 314 316 318 321 325 324 323 322 325 328 326 325 329 328 325 326 332 334 336 338 340 342 343 343 342 342
315 315 315 315 315 315 316 316 317 317 317 317 318 318 318 318 318 318 318 318 318 319 320 321 322 323 324 322 312 311 301 302 308 309 340 360 358 355 357 359 352 322 318 315 312 311 310 311 308 308 307 309 309 307 309 311 311 310 306 307 311 315 316 317 319 323 324 324 322 326 328 325 324 321 328 326 327 330 334 336 338 340 342 343 341 342 341 342
315 315 315 315 315 315 315 316 316 316 317 317 317 318 318 318 318 318 318 318 318 319 320 321 322 323 324 316 305 299 300 302 311 310 347 357 345 351 345 330 323 320 316 314 311 309 310 311 309 311 308 307 309 307 309 307 307 307 306 308 311 314 317 318 320 321 322 322 325 326 324 324 325 324 327 324 330 333 335 337 338 340 340 341 341 341 341 341
314 315 315 315 315 315 315 315 315 316 316 316 317 317 317 317 317 317 318 318 318 319 320 321 322 324 324 316 301 301 303 306 309 317 339 338 332 328 328 325 319 317 313 312 311 311 310 308 309 311 306 309 310 310 307 306 301 307 307 312 314 316 317 319 319 320 321 323 326 324 322 323 324 328 323 326 331 334 336 337 337 338 338 339 340 341 340 340
314 314 314 314 314 315 315 315 315 316 316 316 316 316 316 317 317 317 318 318 318 319 320 321 322 324 317 310 299 299 308 308 316 332 336 332 326 326 317 321 316 313 313 311 310 310 307 306 312 314 311 311 309 308 308 306 305 309 313 316 316 317 319 320 319 320 323 323 325 322 320 322 326 325 317 329 333 335 335 335 336 336 336 338 339 340 340 340
314 314 314 314 314 314 315 315 316 315 316 316 316 316 316 316 317 317 317 318 319 319 320 322 323 321 314 312 302 300 310 322 326 327 329 325 322 321 317 319 316 311 312 311 311 309 307 311 315 314 313 308 309 308 307 308 311 315 319 319 318 319 320 320 321 321 323 321 324 323 320 323 324 323 320 328 333 335 333 333 334 335 336 337 338 338 339 340
314 314 314 314 314 314 314 315 315 315 316 316 315 315 316 316 316 316 317 318 319 320 321 322 325 319 315 303 300 306 311 318 314 312 324 320 316 320 315 319 317 313 312 311 312 314 313 315 313 312 307 311 305 311 306 308 318 318 321 315 316 318 318 320 320 322 323 320 324 325 321 318 319 318 324 331 334 334 333 332 333 334 335 336 337 338 338 339
314 314 313 313 314 314 314 314 315 315 315 315 314 315 315 315 315 316 318 319 320 320 322 324 323 317 311 302 306 313 315 316 315 315 314 318 319 317 315 317 317 313 312 312 311 314 315 314 313 308 311 307 307 303 309 310 317 319 319 317 315 315 314 319 323 322 322 322 325 325 308 312 317 320 327 332 333 333 331 331 333 333 334 335 336 337 337 339
314 313 313 313 313 314 314 314 315 315 314 314 314 314 314 314 315 317 320 320 321 322 323 325 319 317 307 303 310 313 314 314 315 318 317 317 317 315 316 314 316 313 312 311 308 308 315 313 310 310 312 308 306 310 306 307 314 311 313 315 311 310 310 318 320 321 320 324 325 320 307 309 315 321 329 332 333 331 329 331 332 332 333 334 335 336 336 338
313 313 313 313 313 313 313 313 314 313 314 314 313 313 313 313 316 318 322 322 323 323 324 325 316 314 305 307 316 319 342 333 328 326 317 314 313 314 313 311 313 314 312 312 312 312 311 311 310 308 305 310 309 306 299 302 306 315 312 306 307 309 308 317 317 321 318 321 324 316 306 310 315 322 329 332 332 331 329 330 331 332 332 333 334 335 336 337
313 313 313 313 313 313 313 313 313 313 313 313 312 312 314 314 317 321 323 322 323 325 323 318 317 314 307 305 314 330 324 316 315 323 324 317 314 313 311 310 310 313 312 313 315 316 311 311 306 303 307 307 302 297 296 301 305 306 306 305 307 305 310 312 317 318 322 322 321 316 305 313 315 323 328 332 331 330 329 329 330 331 332 333 333 334 335 336
313 312 312 313 313 313 313 313 312 312 312 312 312 312 313 316 320 323 325 325 324 322 320 317 318 320 304 311 319 313 312 316 320 318 320 319 316 312 310 309 309 309 310 311 311 313 310 309 311 307 302 300 298 298 295 296 298 307 301 305 306 307 309 307 314 316 317 321 316 316 312 313 315 324 327 330 331 329 328 328 330 330 331 332 333 333 334 334
312 313 312 312 313 313 313 313 312 312 311 311 311 310 310 316 319 322 323 323 322 320 318 321 316 307 304 311 308 308 315 312 315 316 316 318 317 311 309 308 305 305 307 307 308 307 308 305 303 299 300 300 301 296 294 292 300 303 301 302 304 305 311 310 311 315 316 319 315 313 313 314 318 323 326 328 330 329 327 328 329 330 330 331 332 332 333 333
312 312 312 312 312 312 312 312 312 311 311 311 311 313 315 316 316 314 315 317 308 303 300 307 304 299 297 304 308 311 313 314 316 316 314 315 315 312 309 307 306 305 302 302 302 305 303 300 301 298 296 296 297 299 296 296 300 307 305 304 305 304 306 308 313 316 318 315 312 312 311 313 317 321 325 327 329 327 327 328 329 329 330 330 331 331 332 332
312 312 312 312 312 312 312 312 311 311 310 307 305 305 303 300 298 298 309 315 307 304 304 305 310 309 309 310 309 313 316 318 312 312 315 319 314 311 310 308 302 301 299 299 302 302 303 297 294 296 296 299 300 301 301 300 304 305 303 303 302 303 307 310 311 313 319 315 311 312 313 314 317 321 323 326 327 326 325 325 326 327 328 328 329 330 331 331
311 312 312 312 312 312 312 311 311 310 310 306 302 298 295 297 294 293 299 301 304 306 306 307 308 308 308 310 312 311 309 309 313 311 317 317 310 312 307 304 300 299 298 298 300 304 304 296 296 298 300 300 301 302 301 301 302 303 302 302 301 303 303 308 309 313 319 315 309 312 313 313 317 320 323 325 324 323 323 323 324 325 326 327 328 328 329 331
312 312 312 312 312 311 311 311 310 309 309 303 300 297 299 302 304 304 301 296 302 305 305 307 309 308 312 312 313 315 313 308 310 311 314 317 310 308 304 302 295 296 297 299 299 297 296 296 299 300 300 300 300 301 301 301 301 301 299 299 300 301 303 306 309 314 316 314 308 310 312 312 315 319 322 323 323 324 325 325 324 324 325 325 327 328 329 329
312 312 312 312 311 311 310 310 309 308 302 299 297 299 301 305 306 307 304 299 298 305 305 305 304 305 307 312 313 314 307 306 305 309 312 315 306 308 302 300 296 296 296 298 296 294 294 295 300 300 299 299 300 299 300 300 300 299 299 299 298 301 304 299 306 313 314 311 307 310 310 310 315 318 320 323 323 324 325 325 324 325 324 325 326 327 328 328
311 311 311 311 311 310 310 308 308 305 301 301 299 300 307 306 305 305 304 296 296 301 305 306 307 306 306 306 312 312 307 307 307 307 314 311 306 305 302 300 296 295 295 295 296 295 293 298 299 300 300 300 299 299 299 298 297 298 301 297 299 302 305 304 303 310 309 312 313 311 307 304 310 312 315 320 323 322 323 323 323 324 326 327 328 328 329 328
311 311 311 311 310 310 308 307 301 301 302 300 301 306 308 305 306 304 300 299 297 300 308 308 309 308 310 318 315 310 309 311 310 312 313 313 305 304 302 302 298 295 295 294 295 294 295 298 299 300 298 299 299 298 299 300 296 297 298 302 301 304 304 305 309 309 306 303 309 310 297 299 305 312 314 317 319 319 321 320 321 323 325 325 325 326 328 329
311 311 312 311 310 309 308 298 299 302 300 297 301 307 305 305 305 305 301 292 291 297 304 301 311 305 316 310 312 311 310 305 312 315 312 313 314 309 305 300 301 297 294 295 295 294 296 299 300 298 299 298 298 298 299 301 296 295 298 301 302 304 305 307 308 307 299 300 308 312 302 294 298 307 312 314 316 317 319 319 321 322 324 325 325 326 326 327
311 311 311 310 310 308 301 296 303 303 294 297 306 306 305 305 307 304 298 288 286 299 299 306 307 305 313 310 311 309 296 297 311 314 314 318 311 310 304 298 299 300 299 298 296 293 299 298 299 298 298 298 297 296 298 301 298 295 299 301 302 303 305 307 308 308 303 309 308 310 305 298 296 305 312 314 314 315 316 318 319 321 323 325 326 327 326 327
311 311 310 310 309 308 303 304 302 299 298 299 306 305 305 305 305 304 296 283 284 299 304 304 307 312 311 310 311 305 301 305 303 307 316 315 311 307 306 298 299 298 299 298 292 295 299 297 297 297 297 296 297 297 299 302 299 297 300 300 300 303 305 307 308 306 303 305 299 305 307 301 297 302 309 313 310 311 314 317 318 320 323 325 326 327 327 328
310 310 310 310 309 308 308 304 302 299 304 306 305 305 305 305 302 298 289 284 295 302 309 304 313 309 306 309 306 306 304 306 302 306 310 311 311 305 302 299 299 299 298 300 294 294 299 300 299 299 297 295 296 297 302 303 301 301 300 300 299 300 303 308 305 305 302 300 296 302 304 300 296 297 306 310 311 311 313 316 318 320 322 324 326 327 328 328
310 310 309 309 307 305 301 305 301 305 305 306 305 305 305 302 301 294 286 282 301 293 304 305 303 301 304 303 302 305 302 303 306 306 309 306 308 309 308 303 300 297 298 299 298 298 299 307 306 299 298 299 298 299 303 304 303 301 301 299 298 299 300 301 300 299 298 295 296 304 306 304 297 298 305 306 309 314 315 316 318 320 322 323 326 328 328 328
309 309 309 309 303 305 304 298 301 304 306 305 305 303 301 298 292 285 281 289 299 298 303 301 300 303 299 300 297 301 303 302 304 305 302 307 304 304 302 302 299 298 295 296 295 296 299 300 300 300 306 301 301 299 302 305 304 302 299 295 295 295 298 295 293 299 295 289 297 302 305 305 297 295 302 312 316 317 317 315 316 318 320 322 325 327 329 329
308 307 309 306 306 307 299 296 298 305 304 304 303 299 294 290 290 285 285 301 293 295 296 296 299 300 299 300 299 299 300 302 303 303 300 300 298 299 298 293 296 290 290 289 290 292 294 297 298 299 314 303 299 298 299 302 301 300 296 298 293 286 291 292 294 292 291 294 299 300 305 300 300 304 307 311 314 316 317 318 318 318 320 322 324 327 329 330
306 306 307 307 308 305 305 305 303 304 305 303 301 296 292 286 282 288 291 294 291 298 297 301 298 299 299 296 296 298 301 299 300 302 302 301 300 300 299 301 298 297 287 292 291 291 290 294 297 298 300 306 301 298 294 297 297 297 297 291 290 287 287 282 285 286 287 292 298 297 306 300 298 304 311 309 313 316 318 319 320 319 320 322 324 326 328 329
306 306 303 306 305 306 307 306 307 306 303 304 300 293 289 285 284 306 294 294 293 299 300 299 299 299 298 294 296 299 297 299 301 300 301 298 298 295 298 298 298 296 296 291 291 289 286 289 295 297 293 299 302 300 298 293 295 298 296 298 293 289 286 284 285 288 290 294 295 300 300 295 299 303 310 315 315 316 318 319 320 321 320 322 324 326 328 329
305 305 304 303 303 305 306 307 306 308 302 299 292 289 284 284 288 290 292 295 296 299 298 298 298 296 296 296 295 300 301 297 301 298 298 297 294 294 296 297 297 298 295 292 292 291 292 289 290 296 299 299 299 301 301 297 297 295 295 298 293 295 293 291 289 291 291 292 291 296 296 299 305 308 310 313 315 314 316 317 319 318 319 320 321 323 326 328
304 303 304 300 304 306 305 307 307 305 300 292 287 284 285 288 286 293 293 299 300 297 296 296 296 294 290 291 295 298 302 300 298 300 298 297 297 297 299 299 299 299 296 295 292 290 291 288 294 298 299 299 299 302 302 302 293 295 297 293 295 299 299 294 298 296 293 290 290 294 296 296 301 308 312 310 311 312 313 314 315 316 317 318 320 322 325 328
302 303 299 302 304 308 307 307 307 303 298 290 284 283 288 292 293 293 307 298 298 298 292 292 290 293 291 292 293 294 297 298 297 297 294 296 295 297 298 298 301 300 301 300 293 294 291 288 294 297 298 300 300 303 302 303 300 295 292 296 299 300 298 296 289 287 287 287 288 292 295 294 297 296 304 308 308 311 311 312 314 315 316 317 319 321 324 327
300 300 302 303 307 308 308 308 306 302 293 288 285 298 293 290 294 297 298 297 298 296 293 292 291 296 291 293 290 295 296 295 292 296 294 295 294 299 300 299 301 302 301 302 299 295 296 291 293 296 299 299 301 301 300 301 302 302 296 300 299 293 293 291 291 287 286 286 286 289 294 294 297 299 300 305 307 309 311 312 312 313 315 317 318 320 323 326
299 296 295 304 309 309 308 308 305 298 290 284 284 288 295 292 295 296 298 298 297 296 292 291 292 294 294 292 292 295 297 292 293 295 293 293 293 298 300 303 300 302 303 301 300 296 298 291 290 296 297 298 299 298 295 297 301 300 301 299 301 298 292 292 294 291 293 285 286 287 291 291 298 300 303 305 308 310 311 310 311 313 315 317 318 320 322 324
297 292 290 308 309 309 309 307 302 296 286 284 284 287 291 293 295 297 297 296 293 294 292 293 294 292 294 293 295 293 295 295 293 292 294 294 296 299 299 303 300 300 302 302 301 301 295 295 288 291 296 298 293 295 297 299 293 295 296 294 298 300 297 296 296 292 291 287 286 285 287 289 295 302 304 307 307 310 311 311 312 314 315 317 319 320 321 323
299 291 292 309 309 309 307 305 295 288 285 286 289 288 291 291 294 295 297 298 296 299 296 294 293 292 293 293 293 296 294 295 294 294 294 294 296 293 299 301 301 300 300 301 300 298 296 293 292 295 296 292 292 296 299 298 299 296 297 295 295 293 295 292 290 293 291 291 283 284 289 289 299 306 307 307 309 310 312 312 313 314 315 317 318 320 322 323
295 286 289 310 310 309 301 293 293 294 291 290 287 291 291 301 295 294 296 296 296 294 299 296 295 294 294 294 295 295 296 294 295 294 294 295 296 297 298 301 302 301 300 296 298 300 299 293 295 292 293 296 297 300 300 300 301 300 301 298 299 297 295 292 287 289 292 292 293 290 289 293 299 305 308 309 308 310 312 313 313 314 315 316 318 320 322 324
294 290 298 306 310 306 298 292 297 299 293 292 298 299 298 296 296 296 296 296 295 295 295 295 295 294 295 296 295 295 296 294 295 293 294 296 297 300 303 303 302 302 302 298 301 301 316 296 293 295 295 297 300 300 301 300 299 298 297 298 297 296 298 296 294 292 293 291 292 291 290 288 297 308 309 310 310 310 312 314 315 315 316 317 317 319 321 322
295 294 298 307 309 305 296 290 290 291 297 300 299 298 301 299 297 297 295 295 294 294 293 294 295 298 296 297 296 295 297 293 296 296 295 297 297 301 302 303 303 300 301 298 299 306 296 293 294 289 289 292 295 297 297 298 299 295 295 296 297 297 298 295 295 294 295 292 294 291 287 290 299 309 308 309 309 311 311 314 316 315 315 316 318 319 320 322
295 298 296 300 309 303 293 293 293 291 295 294 294 295 298 300 301 302 300 298 300 297 296 294 296 297 296 298 297 299 300 297 295 298 300 298 301 307 308 305 306 301 304 306 319 307 300 294 294 288 285 285 285 287 290 293 293 292 296 296 297 298 296 296 294 294 290 292 294 290 288 293 298 302 305 308 309 309 311 314 316 316 316 317 318 319 320 321
294 288 296 297 298 299 299 300 295 293 292 293 294 295 298 296 301 302 302 301 303 300 299 299 298 298 296 296 295 296 297 299 297 295 300 300 302 305 307 310 308 302 311 319 321 305 298 297 297 295 293 291 292 291 294 298 293 295 294 297 296 297 299 299 294 292 292 288 293 290 295 297 300 304 305 306 308 309 310 312 315 316 316 317 318 320 320 321
296 292 293 288 297 294 294 295 295 295 291 296 289 296 297 297 300 302 303 299 302 300 299 298 299 296 295 295 294 295 297 297 299 298 298 300 301 304 309 309 306 318 330 321 317 301 294 295 295 297 297 298 298 297 297 299 296 295 296 295 297 297 296 297 295 295 294 293 288 292 293 299 300 303 305 306 306 308 310 313 315 316 317 317 318 319 329 320
290 297 296 298 290 286 290 291 296 294 296 297 294 299 297 297 299 298 301 302 302 302 297 298 298 299 298 296 297 293 295 296 297 296 300 301 303 305 305 307 307 316 315 308 312 303 296 293 295 296 297 299 300 299 299 298 297 296 296 296 296 296 295 296 297 297 297 297 295 297 295 299 301 304 307 308 309 310 311 313 316 318 319 318 318 319 320 320
299 298 298 301 293 294 294 295 297 297 296 296 296 299 297 297 296 298 296 295 299 300 300 295 295 296 297 298 297 294 297 294 295 300 300 301 304 304 301 304 305 307 308 304 305 303 299 294 294 297 297 298 298 298 298 298 298 298 297 296 296 295 295 297 298 298 299 299 300 300 298 301 304 305 307 309 311 312 313 315 316 317 317 319 318 318 319 320
291 292 292 297 296 295 295 296 296 295 291 296 297 298 298 296 295 297 299 297 295 297 303 302 302 304 304 304 302 297 299 300 299 298 303 302 300 302 302 302 303 305 307 305 305 305 299 293 305 295 294 295 297 298 297 296 297 297 298 298 297 295 295 296 297 298 301 299 299 301 299 301 305 307 309 310 310 311 312 314 315 317 317 318 318 318 319 320
297 298 298 293 291 293 296 296 294 292 290 293 294 297 296 297 296 297 296 300 297 297 302 300 301 301 303 303 303 301 303 303 303 302 304 305 299 303 302 301 304 304 304 304 305 304 301 294 297 294 292 291 295 296 296 296 295 295 296 297 296 294 294 295 296 299 298 298 298 299 297 299 305 306 311 308 309 311 312 312 314 315 317 319 319 319 320 320
299 301 301 297 290 296 291 292 292 292 288 294 296 294 293 295 297 297 294 299 301 301 302 300 301 300 299 302 302 304 302 302 303 304 304 306 307 307 307 306 307 306 301 302 302 302 299 297 297 292 291 290 294 295 295 294 295 292 293 295 296 296 296 296 299 303 302 301 299 297 298 304 307 309 308 308 308 310 311 311 313 315 317 319 319 320 320 321
Wind_Speed
22 22 23 23 22 23 22 22 22 23 23 23 23 23 21 21 22 21 21 21 21 20 20 19 18 18 16 15 14 13 12 7 8 2 1 15 10 10 11 6 8 7 11 5 5 5 0 1 2 3 3 4 2 1 1 2 2 1 1 4 0 4 8 8 10 10 4 12 9 9 7 10 9 3 5 10 7 5 6 5 3 6 6 8 9 14 13 13
22 22 22 22 23 23 23 23 23 23 23 22 22 21 22 22 22 20 20 21 20 21 21 19 19 18 16 13 12 11 9 4 8 7 17 19 11 9 10 9 7 12 9 3 6 4 5 1 2 4 4 1 1 1 0 1 1 4 1 1 5 4 4 10 8 6 10 8 14 9 8 9 6 13 6 8 7 5 7 4 8 8 8 10 13 14 14 13
22 22 22 22 23 23 22 23 23 23 22 22 21 23 23 22 21 21 22 21 21 21 21 20 19 18 15 12 10 9 7 4 2 9 13 2 15 17 12 12 9 12 5 3 5 8 7 8 5 3 1 1 2 2 2 2 2 2 5 2 5 7 2 5 11 10 11 15 12 11 9 5 4 6 6 8 10 6 7 8 6 10 11 13 14 14 13 12
22 23 22 22 22 23 23 24 23 22 22 22 21 21 22 22 22 21 20 20 20 20 20 20 19 17 14 12 9 8 2 3 4 4 2 7 10 3 11 11 8 9 4 2 6 6 3 4 3 4 2 2 2 0 0 2 1 1 2 4 5 5 5 4 13 10 8 17 14 12 9 5 7 4 6 13 10 3 4 9 10 14 16 16 15 15 13 12
22 22 23 23 23 24 24 24 24 23 22 22 22 21 22 23 23 22 20 20 21 20 20 20 19 17 14 10 8 3 3 4 4 2 5 5 6 2 8 11 9 7 6 4 7 4 5 3 2 2 2 1 1 1 3 1 2 3 6 5 5 4 2 7 11 12 12 9 15 12 13 10 5 3 7 15 11 8 11 11 6 12 14 17 18 15 12 13
23 23 23 23 23 24 25 24 24 24 23 23 23 22 22 22 22 22 22 19 19 19 18 19 18 17 14 10 3 2 1 3 1 3 3 8 9 9 7 9 13 11 9 6 4 4 5 2 3 2 1 2 2 2 2 2 3 3 4 3 6 7 4 5 8 11 15 10 12 13 9 9 9 5 9 11 4 3 5 11 12 15 16 14 13 13 13 13
23 23 23 23 24 24 26 25 25 24 24 22 22 21 23 23 22 21 21 20 18 17 18 18 16 15 12 7 2 2 2 8 7 7 11 9 8 6 1 11 16 10 7 6 5 5 3 4 4 3 4 1 1 1 5 1 1 3 7 1 6 7 8 11 12 15 14 18 15 10 11 13 8 8 8 5 3 3 11 12 13 13 14 15 14 13 14 13
24 24 24 24 24 24 25 25 25 25 24 23 23 24 24 23 23 22 21 20 18 18 17 16 15 12 7 3 0 1 0 8 14 6 7 5 7 7 11 7 9 8 7 8 7 5 4 7 5 3 3 6 3 3 1 1 3 5 6 4 2 5 9 11 14 13 12 10 10 11 14 14 12 8 11 3 2 9 12 13 14 14 14 13 15 14 13 12
25 25 25 25 24 25 25 26 25 25 25 26 25 25 25 24 22 22 21 21 20 19 17 14 13 9 2 1 1 5 8 7 5 4 5 3 5 7 7 4 4 8 5 5 5 7 6 3 3 4 3 1 2 0 1 1 3 4 6 2 5 6 11 12 13 12 12 7 11 13 8 4 5 10 3 1 5 8 13 14 14 15 14 13 14 14 13 12
25 26 25 26 26 27 26 25 25 24 24 25 25 26 26 24 23 22 23 21 20 18 15 13 9 6 1 1 1 3 8 6 2 1 2 5 6 4 8 4 6 8 7 3 4 4 2 4 4 4 5 1 2 2 0 1 3 2 1 2 9 9 12 12 14 11 11 9 15 15 8 6 7 8 2 3 8 11 13 14 13 15 15 13 12 11 12 13
25 26 26 26 27 27 27 25 25 25 25 25 26 26 27 26 24 24 23 22 19 17 13 11 9 3 2 2 2 9 6 2 2 3 3 5 7 5 1 4 2 4 8 3 4 5 4 6 3 3 1 2 2 1 1 3 1 5 7 12 9 7 9 8 11 11 9 3 8 12 6 5 4 1 5 11 11 14 16 14 14 13 13 12 12 11 9 10
25 25 26 27 27 27 27 26 27 26 27 27 27 27 26 25 25 24 23 21 18 13 9 5 6 2 0 1 7 10 3 4 2 0 1 2 4 5 6 7 2 2 7 6 4 6 5 5 3 1 2 2 0 1 1 4 4 4 14 9 4 9 8 8 14 10 11 5 8 10 11 4 4 5 3 10 13 13 15 13 14 13 12 11 11 10 9 10
26 26 27 28 27 28 27 28 27 27 28 28 29 27 26 25 25 24 22 16 9 7 3 5 3 0 0 3 11 12 9 8 6 7 5 2 1 1 3 5 7 3 4 9 6 7 4 3 1 2 2 2 1 0 1 4 2 5 5 11 6 5 5 3 2 7 7 7 15 12 3 8 9 2 9 10 13 12 12 12 12 11 10 10 10 10 10 9
26 27 27 28 28 27 28 28 28 29 29 30 29 28 26 25 24 22 16 11 8 6 6 5 2 1 1 8 6 4 5 4 4 6 6 3 4 2 1 1 5 4 4 3 2 3 2 1 2 1 1 1 0 1 2 2 4 5 3 5 7 9 7 6 4 7 9 7 16 1 5 7 7 3 10 11 14 18 15 13 12 11 10 10 10 10 10 10
26 28 28 28 28 27 28 29 29 30 31 30 30 29 27 24 22 18 12 7 3 4 6 6 1 2 1 8 7 10 10 1 3 8 3 5 4 1 2 3 4 4 4 5 1 1 3 4 2 1 1 1 2 2 3 3 2 3 9 0 2 6 6 7 3 8 14 4 8 3 1 6 6 7 11 12 12 14 15 14 13 12 11 11 10 10 10 10
26 28 29 29 28 27 27 25 29 31 32 32 30 31 27 21 18 14 6 3 2 5 4 1 1 1 1 8 2 3 1 0 3 2 0 4 5 3 3 5 2 1 2 0 1 1 1 2 1 5 1 2 5 6 4 4 1 3 7 4 7 1 7 4 7 3 3 13 5 2 4 2 0 6 9 11 13 12 12 13 13 13 13 12 11 10 10 9
25 26 28 30 28 28 30 26 28 32 30 30 31 29 23 16 12 4 5 5 2 2 1 1 2 2 1 3 3 4 1 2 4 1 1 5 4 3 7 4 1 2 1 1 2 1 1 2 0 2 3 3 3 6 7 2 1 4 2 6 3 6 6 4 2 4 2 8 9 2 4 4 2 12 11 11 13 12 11 13 13 13 12 12 11 11 11 11
23 24 28 29 29 31 29 26 29 31 30 30 29 25 19 16 10 2 4 3 0 0 3 2 1 2 9 2 3 3 1 5 5 6 8 3 6 5 3 1 3 5 4 1 1 3 1 2 1 6 1 2 3 5 7 8 9 8 4 4 4 3 8 11 10 10 8 7 4 2 2 3 5 11 14 13 13 13 13 13 14 13 12 11 11 11 11 11
27 26 27 28 30 30 29 28 30 28 26 31 28 20 7 2 1 0 1 0 1 1 1 1 1 3 6 3 4 8 3 6 6 2 4 3 2 2 3 3 6 7 2 3 1 4 0 2 3 3 6 3 6 7 7 7 7 12 10 6 5 7 8 10 6 3 15 12 7 7 9 6 7 11 12 12 13 14 12 11 11 12 12 11 11 11 11 12
28 28 27 26 28 29 30 29 30 26 27 21 13 6 1 5 4 1 1 1 3 6 6 6 5 5 9 14 11 3 5 1 1 3 1 1 7 3 1 2 3 4 5 6 1 4 4 5 7 8 7 8 8 9 10 6 10 7 4 4 5 5 6 3 2 3 8 6 8 6 1 8 11 15 16 15 12 11 10 11 11 11 12 12 11 12 13 13
27 27 29 26 26 25 28 29 28 25 26 11 10 2 4 1 2 5 9 13 13 9 11 13 13 12 11 4 2 3 5 4 2 2 2 3 6 5 1 2 1 3 3 4 6 1 4 7 9 9 10 10 10 8 4 5 4 8 7 6 6 7 7 3 2 2 9 10 4 4 4 7 11 12 13 12 12 15 16 14 13 14 13 12 13 13 14 15
26 27 26 24 25 27 27 27 26 24 19 4 4 3 1 2 1 2 1 10 3 11 12 17 8 11 10 14 12 0 2 3 10 8 4 6 3 4 1 3 4 7 2 1 2 3 6 10 8 9 7 5 4 5 5 8 5 3 7 5 5 7 4 3 3 3 4 1 2 3 7 5 4 9 10 14 18 17 16 16 15 14 13 12 12 14 13 11
27 26 25 25 25 27 29 27 26 20 4 5 7 1 1 1 4 3 2 4 15 8 13 10 6 16 15 9 2 8 6 7 9 7 1 5 2 7 5 4 4 4 2 2 7 5 5 6 9 5 6 8 2 4 5 3 2 5 4 4 5 5 7 3 2 8 1 2 3 2 3 1 1 3 9 13 15 10 10 10 10 12 14 15 16 16 14 13
28 28 25 24 25 26 30 28 21 4 3 6 6 6 1 3 3 5 1 4 9 3 9 8 11 5 9 6 4 11 9 4 4 8 2 6 7 3 5 6 5 4 7 4 6 8 6 2 5 7 8 8 5 4 6 5 4 2 5 4 2 2 7 8 4 4 1 3 3 6 2 3 2 6 7 10 9 6 8 9 9 9 11 14 12 10 12 15
29 28 26 25 24 25 29 24 3 5 10 7 5 5 3 3 3 3 2 5 3 7 2 3 4 4 6 3 7 9 6 0 9 4 4 9 4 3 4 3 4 6 5 4 4 4 8 6 4 9 5 6 6 4 6 8 5 3 5 8 7 7 5 6 10 10 4 3 3 8 1 5 5 10 13 8 8 11 8 11 14 13 13 10 9 12 12 11
29 29 27 23 26 24 29 4 2 8 13 5 1 1 2 3 3 1 3 2 6 5 2 1 1 2 2 1 3 2 4 4 7 8 6 7 9 6 1 2 3 7 5 5 6 4 6 2 6 8 8 6 6 6 6 8 6 4 6 9 7 7 7 11 12 9 4 6 8 7 9 6 3 9 11 9 11 14 8 12 14 13 13 12 12 12 12 13
29 29 25 21 24 21 11 3 3 11 5 1 1 4 3 5 2 1 1 4 4 3 1 1 1 1 1 3 6 5 1 7 2 4 4 2 7 1 6 5 1 1 4 3 2 6 2 5 6 4 5 7 5 7 4 9 8 3 3 11 8 7 10 10 14 12 5 2 4 5 1 2 3 9 7 9 11 11 13 14 13 14 15 15 14 14 13 14
30 28 22 20 18 12 6 8 10 6 9 2 3 6 7 4 2 0 2 2 2 2 0 2 2 1 0 3 7 7 4 1 3 5 9 6 5 1 5 6 7 7 3 4 10 3 7 6 8 7 5 4 8 5 6 9 7 4 3 10 9 10 10 11 12 9 4 7 1 4 0 0 4 7 1 13 9 10 17 18 17 16 17 17 16 16 15 15
27 28 26 22 20 15 8 5 3 8 5 2 6 9 5 4 1 3 1 1 3 1 1 2 1 2 2 2 3 5 3 1 1 0 2 4 3 6 4 6 6 8 5 9 7 2 1 7 9 9 7 7 5 5 9 12 6 6 5 5 4 4 3 11 8 8 2 4 6 8 6 6 8 4 1 4 10 14 19 21 21 19 18 17 17 16 16 15
30 29 28 22 14 2 0 3 11 12 5 9 11 9 4 1 2 1 2 3 2 2 1 1 2 2 1 4 2 3 5 3 2 1 1 5 3 0 1 5 5 4 3 0 5 9 3 3 7 6 8 6 6 4 9 11 6 4 9 5 5 7 4 3 4 4 4 3 7 11 12 11 8 6 8 10 11 19 18 14 13 13 14 16 18 19 17 15
26 27 24 20 7 4 4 7 11 10 8 6 9 7 1 3 3 4 4 6 3 6 1 1 1 1 2 0 2 3 5 3 3 2 1 2 2 2 2 1 4 3 2 1 3 3 3 3 2 3 5 3 5 3 3 10 7 7 3 4 5 3 5 5 4 2 4 5 9 8 11 8 10 5 5 14 15 20 19 18 18 18 20 19 17 17 18 17
27 28 27 15 10 7 6 8 1 5 2 5 6 5 3 3 2 5 5 2 0 2 2 1 1 1 2 1 3 1 5 2 2 2 4 4 5 7 4 5 6 3 5 4 6 2 4 7 2 5 2 10 4 5 3 1 1 5 6 6 7 3 1 0 2 2 6 8 6 2 8 4 10 14 9 14 15 13 14 15 18 19 20 19 18 18 16 15
28 29 30 17 9 8 15 13 3 5 9 9 5 1 1 3 6 4 4 1 3 1 0 2 2 2 2 5 2 3 2 5 2 2 6 2 8 7 6 9 9 8 4 3 4 3 5 2 5 4 5 3 7 10 2 2 2 7 7 6 6 3 2 3 2 1 2 7 6 3 9 7 2 9 11 10 16 18 16 18 17 14 19 19 19 16 15 15
28 29 16 8 7 11 7 2 4 4 3 1 1 1 3 2 6 7 11 6 6 1 2 0 7 7 1 1 4 1 2 2 6 2 4 3 4 6 4 2 5 5 2 2 8 6 2 4 9 6 4 3 6 6 10 6 7 9 5 11 8 7 5 4 3 4 6 8 3 2 9 6 5 9 10 17 19 14 16 15 5 2 8 14 15 13 15 16
30 22 10 9 5 9 14 9 3 6 4 4 3 4 7 7 2 5 4 5 3 3 6 2 5 4 10 1 2 1 1 2 1 4 2 6 5 3 6 6 4 4 3 6 3 2 10 6 6 7 4 4 8 4 6 6 5 3 3 6 6 9 6 5 8 6 5 1 3 1 5 7 9 4 7 2 2 6 10 9 5 9 7 9 9 12 14 15
19 10 8 5 3 3 7 7 8 7 7 6 4 4 11 6 5 2 3 4 1 1 3 4 1 2 3 3 2 3 3 0 4 0 1 5 5 8 5 5 8 10 7 9 4 2 1 5 4 4 3 5 6 6 4 8 8 4 5 6 7 7 8 3 2 0 3 3 5 3 2 5 8 10 10 4 4 9 7 7 8 11 9 10 12 13 13 15
11 12 7 3 4 2 6 9 9 7 3 6 5 9 5 4 4 3 3 2 1 1 2 1 2 3 1 1 0 2 4 3 2 1 3 1 2 4 3 5 4 8 9 11 3 4 7 5 4 7 8 6 5 7 6 7 8 6 5 8 2 3 4 5 5 2 1 5 5 2 8 2 4 6 5 4 6 13 10 14 12 6 6 11 13 13 15 16
11 7 7 6 5 3 7 10 10 5 4 7 10 5 3 4 3 5 1 1 1 2 2 1 3 2 2 0 2 1 2 4 5 3 2 2 3 4 8 2 5 10 11 7 9 3 5 7 3 6 10 4 2 4 5 5 4 9 5 8 8 4 5 2 4 2 1 2 2 2 4 3 9 8 3 5 11 16 16 13 5 7 11 14 13 14 14 15
5 2 6 2 3 5 6 8 6 7 5 5 6 5 3 5 1 2 5 3 2 1 1 3 2 1 2 1 2 1 2 2 1 0 0 2 2 3 8 7 5 10 12 9 8 2 3 5 4 1 7 2 4 7 13 10 1 3 5 4 0 5 3 5 7 5 6 5 2 4 2 6 7 7 12 12 14 16 16 11 10 12 15 15 13 14 16 16
7 4 2 1 4 6 8 4 1 1 3 9 6 6 2 4 4 4 4 2 2 3 4 2 4 3 2 6 2 4 1 3 3 3 2 3 3 2 3 3 2 4 12 13 9 7 4 4 6 3 2 1 6 4 12 11 6 3 4 3 2 0 3 4 1 4 5 6 6 5 3 6 8 10 11 15 13 15 15 15 13 13 14 16 16 14 13 15
3 2 5 2 4 6 6 1 1 6 5 2 2 2 1 2 1 2 4 5 2 2 3 2 2 3 2 1 3 1 1 1 2 2 3 3 4 4 5 6 4 5 3 7 10 5 3 3 8 2 3 5 7 7 7 7 9 8 9 8 8 5 4 6 9 2 2 3 3 4 8 6 9 5 12 14 14 14 14 15 14 14 14 14 10 12 15 15
4 4 2 1 6 4 2 2 3 1 1 3 5 3 3 3 2 4 3 2 5 3 2 3 4 4 3 5 4 2 2 3 5 4 4 7 3 6 4 6 7 5 8 6 9 9 8 4 4 7 7 10 8 7 4 4 8 9 12 10 11 6 5 5 6 5 1 2 5 4 2 7 8 6 13 14 6 7 7 6 10 11 10 8 10 12 14 17
1 7 6 1 6 3 3 2 3 1 3 4 3 3 2 2 2 3 1 1 0 4 1 3 4 4 5 5 4 5 6 4 5 5 4 3 5 7 9 9 8 3 6 4 6 7 6 3 5 6 4 4 6 4 1 4 3 0 4 1 7 11 10 9 7 8 7 1 1 1 2 6 3 2 5 6 4 5 5 9 14 11 5 5 8 9 12 10
4 6 7 1 2 2 2 3 2 4 3 4 4 6 3 2 1 2 2 2 2 0 3 2 3 7 4 6 4 4 6 1 5 7 4 3 4 8 9 11 6 5 8 6 9 6 5 3 7 4 1 3 6 4 4 1 3 4 4 5 6 4 4 2 3 2 6 8 9 7 7 3 5 2 4 4 5 7 8 9 8 10 6 6 8 8 9 10
6 5 6 7 2 2 3 3 1 2 2 3 3 3 2 2 5 8 6 4 3 5 1 3 5 2 3 4 5 6 5 6 2 3 0 3 3 3 9 5 5 4 11 9 12 10 9 6 7 8 9 9 8 11 12 10 8 2 2 5 6 10 8 5 6 3 8 3 4 4 4 8 8 5 4 3 4 5 6 6 7 8 7 7 7 9 10 10
3 4 5 3 2 1 2 2 3 2 1 3 3 5 2 3 2 5 9 6 7 5 7 4 4 3 5 4 4 6 6 4 5 2 1 2 2 3 2 10 3 5 8 11 5 8 4 4 8 11 13 11 10 7 6 5 3 7 4 9 7 7 13 10 6 6 10 5 7 8 8 5 4 6 6 8 5 8 8 6 9 11 10 9 9 10 11 9
3 2 3 5 6 1 1 2 4 4 2 3 1 2 2 3 2 3 7 3 4 6 2 6 6 4 4 5 6 6 6 5 5 6 7 7 4 4 8 7 6 6 6 4 12 6 3 3 7 11 14 15 15 13 9 8 7 7 9 7 9 10 8 10 9 9 6 9 7 6 4 7 10 8 10 9 7 5 5 8 9 8 9 12 10 6 5 4
1 3 2 0 1 4 6 3 8 6 4 2 4 2 4 2 1 1 3 3 3 2 3 1 6 10 8 9 4 4 5 6 6 6 5 7 4 3 6 4 3 3 5 3 8 8 5 6 5 5 11 15 14 14 9 6 7 7 8 8 8 8 8 12 10 10 11 10 12 8 8 7 8 10 13 14 12 13 14 16 17 12 4 4 6 8 10 10
2 4 2 6 2 3 2 8 9 7 7 4 3 3 4 3 5 0 1 4 3 2 4 3 4 8 11 8 4 6 4 4 7 6 5 4 4 0 2 6 3 2 7 5 1 0 3 6 6 8 12 13 13 11 6 10 6 5 6 7 7 8 11 13 11 8 13 9 12 12 13 16 12 11 12 14 13 11 7 2 2 5 11 12 9 10 13 12
3 3 3 4 4 7 7 4 3 5 6 4 3 5 2 3 2 7 4 1 2 5 1 2 5 5 4 6 6 5 8 11 9 9 5 6 2 2 1 4 4 5 5 3 1 1 2 5 2 5 5 10 13 11 8 8 10 11 12 10 9 6 8 11 8 2 1 6 5 0 8 12 9 8 10 3 2 3 4 7 11 8 6 9 11 12 13 14
3 2 3 5 6 5 4 3 3 3 4 3 3 4 5 4 4 7 8 6 7 3 1 4 6 10 5 5 7 12 4 3 4 6 4 4 8 6 4 3 2 5 6 4 1 2 2 4 1 2 3 5 5 8 11 7 8 10 13 12 9 6 5 4 5 7 7 8 7 3 4 10 11 5 1 3 5 7 9 10 9 8 9 9 12 14 13 10
4 4 3 3 3 4 5 4 4 2 4 3 3 4 4 6 7 9 7 5 7 9 3 5 5 3 7 4 3 1 6 8 8 8 5 8 9 5 2 2 0 1 3 3 0 2 1 1 1 1 1 5 8 6 10 5 2 5 10 12 11 9 7 4 3 4 9 8 8 7 10 11 14 6 6 4 7 10 9 7 6 5 8 15 17 13 9 8
Wind_Direction
349 349 347 345 345 344 344 343 342 342 339 338 334 332 331 330 329 330 328 326 323 322 321 322 325 327 323 323 328 329 332 328 331 341 297 245 215 209 193 231 148 157 159 112 89 114 331 72 146 126 119 134 237 130 232 141 173 96 105 116 247 185 180 183 174 185 172 149 166 169 163 139 152 131 121 96 93 99 89 84 59 57 65 107 123 128 142 146
348 347 346 344 343 342 341 341 342 340 339 336 333 330 329 328 328 326 324 324 323 321 321 320 322 327 324 322 329 335 330 289 295 281 239 252 237 207 217 229 171 140 128 92 138 153 135 116 178 121 125 142 335 229 38 248 139 101 113 101 222 171 236 165 179 171 134 181 160 158 159 161 170 135 171 114 143 128 101 88 103 82 86 107 123 137 148 149
347 346 345 344 342 341 340 339 339 338 337 334 332 330 328 326 324 323 325 325 322 321 319 319 319 324 321 324 325 342 343 311 291 275 271 256 271 233 217 223 206 153 155 158 193 161 165 179 177 104 21 99 343 210 37 258 130 216 112 204 242 205 179 176 157 184 174 147 151 152 165 162 187 140 173 142 152 132 140 139 122 129 138 138 139 147 154 153
347 345 344 343 341 339 338 337 337 335 334 333 330 328 325 324 321 321 321 320 319 318 317 316 316 322 321 320 333 329 317 276 286 254 264 279 31 110 221 231 201 158 102 108 162 146 138 102 92 102 79 86 292 57 113 260 121 275 104 186 229 183 130 214 162 174 158 155 151 151 149 133 194 167 153 140 116 198 197 189 168 160 154 149 149 154 159 156
347 345 343 341 340 339 338 336 334 334 332 330 329 325 325 321 318 316 316 317 317 316 315 313 314 319 320 320 334 45 336 15 268 228 262 294 333 218 214 220 185 156 156 144 99 87 94 118 105 53 91 187 343 19 245 257 161 108 209 213 180 149 146 183 169 152 152 160 143 146 153 177 150 140 154 151 150 192 200 189 154 149 151 150 154 158 157 159
346 344 343 341 338 338 336 335 333 332 331 329 327 323 319 316 314 314 313 313 314 313 311 311 311 317 319 318 327 74 47 312 319 306 353 321 327 326 283 226 158 144 130 121 122 130 106 37 84 103 43 91 189 144 262 202 153 233 290 225 180 177 146 159 142 147 142 154 150 160 169 132 165 165 178 162 163 246 161 149 151 153 151 149 148 152 158 161
345 343 341 341 339 337 336 334 332 331 328 326 323 319 317 315 311 309 310 311 307 309 309 309 309 314 316 333 114 95 168 263 320 249 343 0 356 355 50 135 134 141 127 109 127 128 137 122 103 167 115 88 288 199 257 224 352 196 242 231 197 168 149 154 147 152 158 155 173 154 141 157 144 161 184 196 281 176 127 133 141 140 141 145 152 162 163 168
343 342 341 339 338 336 335 333 332 330 328 323 321 317 315 314 310 308 308 306 306 305 308 305 304 306 339 354 24 325 226 253 252 312 320 2 34 66 86 81 121 128 130 149 144 127 126 128 152 149 98 153 212 156 87 351 215 212 259 225 211 156 149 147 145 157 160 155 133 137 154 181 173 159 152 231 94 118 121 128 136 141 146 154 156 163 166 168
341 340 339 338 337 336 334 333 331 329 327 323 318 315 313 310 310 307 306 307 305 306 304 303 298 293 345 56 130 332 269 232 236 301 346 40 65 88 84 96 117 116 127 134 158 158 121 223 141 174 216 111 199 194 299 20 324 201 228 148 146 137 145 143 143 151 147 139 144 142 165 108 91 101 93 177 122 125 125 132 141 146 152 160 167 164 165 171
340 339 338 337 337 335 334 332 329 326 323 320 318 315 312 309 306 306 306 305 302 304 300 296 286 289 86 137 71 317 262 209 269 19 60 109 78 88 29 118 115 118 108 160 131 134 160 193 161 187 129 97 152 208 128 102 260 193 91 125 126 139 130 149 142 151 153 153 158 151 148 153 148 141 181 165 139 132 132 140 148 152 159 165 167 169 170 173
340 339 337 337 335 334 332 330 328 324 322 320 317 315 311 308 309 307 307 304 302 302 298 285 271 192 187 170 172 250 245 76 177 113 116 99 89 110 114 93 142 94 109 121 161 184 195 149 191 98 68 210 146 264 125 241 222 99 123 79 66 96 113 129 125 138 124 140 162 135 119 114 165 18 197 158 152 147 141 153 153 161 164 166 170 170 175 180
339 339 337 335 334 333 332 330 327 323 321 320 317 313 309 310 309 308 306 306 305 302 298 270 220 160 61 128 207 226 223 199 113 70 114 60 311 208 166 143 112 142 127 143 192 233 168 170 129 100 178 148 217 56 250 263 78 158 111 82 56 104 109 150 146 159 148 141 136 120 92 140 207 230 140 154 146 150 148 156 160 164 168 169 170 169 177 186
338 338 337 335 334 333 331 330 327 324 322 320 318 311 311 311 310 308 306 309 310 310 293 215 152 89 136 282 228 240 258 272 299 319 304 196 243 213 154 150 146 130 141 135 189 227 215 151 100 94 206 117 196 125 233 68 113 95 39 114 87 87 117 216 80 141 135 159 147 140 125 224 222 242 143 154 148 144 144 159 168 167 170 174 173 174 181 186
338 337 336 335 334 332 332 330 327 323 322 321 316 311 312 312 309 307 308 306 300 267 207 163 94 119 115 245 278 249 241 248 293 301 265 181 163 263 105 139 142 142 157 158 215 216 212 107 125 178 142 118 260 321 38 358 30 93 78 51 136 122 188 210 170 167 133 175 171 103 156 242 224 217 159 161 156 154 161 168 172 171 174 177 180 178 185 191
337 336 335 334 333 332 331 330 327 324 322 321 316 312 313 311 308 305 308 311 273 203 175 142 65 116 106 265 261 277 263 169 295 258 178 136 153 144 166 107 147 173 183 165 164 145 133 114 104 65 247 263 70 63 355 50 8 139 96 181 328 160 209 206 208 179 147 211 211 62 42 222 209 180 169 164 165 161 161 170 174 175 178 181 182 185 189 193
336 335 335 333 332 331 330 330 327 325 324 321 316 313 310 307 306 304 324 283 116 170 152 128 206 154 317 300 270 311 21 62 290 305 280 153 174 182 161 137 132 110 102 311 337 90 95 136 152 191 145 39 70 91 68 78 43 348 112 155 178 180 185 162 238 213 309 160 212 215 205 81 270 179 167 171 166 169 166 173 175 180 182 182 185 189 191 190
337 335 334 333 331 329 331 329 327 327 323 319 316 309 307 304 309 318 63 116 93 58 209 135 142 201 323 234 321 344 296 260 265 330 358 190 187 144 111 97 100 108 35 358 80 120 313 135 287 59 24 132 153 102 96 123 92 200 21 150 189 175 172 222 105 191 146 171 192 167 134 215 201 158 169 175 174 170 175 179 182 184 186 187 187 191 192 194
335 334 334 332 331 330 329 329 328 327 323 319 315 304 302 308 289 271 91 51 31 139 282 236 172 332 273 4 276 235 323 303 316 296 293 240 153 146 112 108 60 93 100 49 19 139 233 165 61 191 55 49 111 90 125 199 176 177 159 130 231 276 213 176 163 202 146 201 206 150 117 196 146 160 174 177 178 180 183 183 185 187 190 190 192 195 195 197
335 334 334 332 330 329 328 328 329 327 323 321 307 292 285 326 74 143 28 58 54 352 340 234 119 146 227 231 255 300 287 234 290 279 292 87 108 119 75 95 112 119 134 119 266 139 8 65 41 98 172 139 168 155 161 200 179 186 174 167 156 191 206 225 210 151 166 179 196 184 185 170 165 169 176 179 181 187 194 189 187 192 193 193 195 199 200 201
335 333 332 331 330 328 329 328 327 326 328 328 335 353 39 8 6 341 321 5 214 218 240 252 215 287 300 288 282 241 252 168 329 271 276 120 97 102 76 103 51 65 114 180 160 209 145 151 175 189 179 181 180 165 189 172 165 158 129 134 187 196 267 274 262 218 173 148 203 194 158 168 175 178 182 181 177 193 198 195 194 196 196 197 200 201 205 206
332 333 332 330 330 327 328 327 325 325 325 316 302 351 64 318 18 320 320 271 254 243 244 248 219 216 231 268 263 43 8 318 199 253 208 121 101 115 268 110 76 170 226 181 153 238 111 176 214 193 186 175 181 183 118 106 118 147 162 171 204 175 223 242 279 240 186 171 204 151 154 199 187 184 181 175 175 199 200 199 201 198 199 200 201 203 204 211
334 332 332 331 330 329 326 327 323 324 322 308 328 57 186 80 150 246 3 310 258 231 232 239 244 255 254 248 248 110 54 300 299 269 278 164 194 148 269 126 144 183 272 139 51 123 182 203 207 208 185 161 129 136 146 143 152 147 152 178 188 224 169 219 143 175 208 106 250 151 174 208 215 191 181 183 193 201 198 197 198 194 200 203 206 207 207 207
333 332 331 332 333 329 328 321 323 321 344 23 360 343 213 178 350 319 227 274 281 217 238 242 242 242 254 257 237 140 184 204 237 276 187 136 100 182 148 137 159 186 221 163 171 138 188 254 227 188 135 133 82 120 136 110 103 133 96 117 208 217 152 253 236 151 76 163 203 168 133 322 76 190 208 207 201 205 203 204 207 201 201 204 206 202 202 203
332 331 331 332 333 329 325 321 316 311 7 321 275 223 203 18 357 348 102 250 292 310 213 210 211 223 226 222 190 162 173 226 158 261 190 123 159 188 121 157 163 145 208 192 176 170 191 250 181 137 161 155 153 151 126 130 189 243 166 143 136 172 203 155 196 127 102 21 88 93 60 327 204 180 215 226 220 216 203 205 214 220 221 217 214 211 206 201
330 331 332 332 334 332 322 317 34 346 308 292 211 248 284 17 345 33 103 312 293 276 207 295 174 244 236 82 140 167 203 230 200 201 185 155 143 101 209 172 122 201 187 192 149 185 252 267 134 137 158 169 135 143 179 143 187 229 227 181 185 192 151 106 126 126 167 261 258 139 23 273 239 208 209 197 201 217 207 201 213 211 217 214 214 214 212 213
329 329 331 331 333 339 314 335 2 341 324 295 132 60 10 335 21 324 107 77 291 275 334 272 83 301 136 138 153 142 82 237 206 211 160 191 157 152 102 185 148 209 183 141 180 198 200 213 138 162 157 170 160 172 207 156 172 148 253 185 194 169 144 141 142 117 118 202 215 179 185 261 311 225 209 201 206 213 211 214 214 211 212 208 211 213 208 205
327 326 328 331 335 346 359 319 351 332 340 345 51 338 332 333 323 213 1 340 327 250 194 232 114 249 169 194 153 123 108 263 227 148 171 152 169 151 143 203 46 59 153 159 59 255 166 193 168 133 133 155 153 199 228 160 130 212 237 166 179 132 143 160 156 163 201 91 28 174 139 187 305 257 197 196 203 214 221 226 220 212 211 209 208 209 208 207
325 323 326 329 331 345 268 285 323 315 236 225 350 334 331 316 285 191 73 13 282 290 272 271 224 174 77 197 166 171 201 214 122 230 183 196 130 331 164 188 172 172 183 131 199 267 172 195 168 172 172 149 185 200 187 161 148 213 197 152 167 169 168 166 160 186 169 140 308 223 7 233 266 270 241 164 203 223 227 224 220 215 210 209 208 208 207 206
322 320 322 327 323 311 267 219 267 251 228 321 325 318 323 303 226 102 131 161 251 286 207 148 39 92 17 56 215 234 325 246 186 270 109 126 176 135 204 197 169 175 194 168 200 266 304 195 188 166 162 203 217 208 159 168 175 267 133 81 74 77 128 167 172 170 98 131 222 213 189 198 275 286 153 198 202 223 228 223 221 211 209 206 206 209 208 205
320 317 318 323 322 273 357 226 230 238 288 315 303 293 304 250 105 62 39 234 353 308 231 277 19 282 37 138 263 264 273 298 265 61 117 149 209 161 186 150 141 142 206 48 190 210 233 330 165 145 189 196 183 203 169 179 193 141 115 88 40 47 61 26 56 99 70 206 236 210 197 185 247 244 184 154 209 214 224 228 225 215 213 210 207 204 204 203
316 312 312 319 298 298 294 265 250 246 248 270 276 269 213 46 137 115 196 227 313 249 358 2 160 355 47 82 279 252 234 283 312 123 43 72 79 101 88 22 38 131 125 150 221 307 283 277 163 239 164 146 153 153 237 192 178 132 120 123 96 22 23 39 352 52 153 250 257 221 195 197 214 285 242 221 216 210 210 218 211 202 205 207 206 205 203 199
316 312 309 308 269 245 196 248 156 86 68 314 339 13 107 213 358 192 201 314 288 280 114 289 306 340 325 49 170 223 177 236 215 164 143 158 148 171 206 172 167 163 230 182 236 334 265 229 239 275 239 151 138 138 221 274 59 116 95 88 151 250 42 310 59 157 193 198 243 146 134 18 249 235 221 227 236 231 220 221 215 201 203 204 205 204 201 197
317 311 308 296 261 203 230 239 349 13 351 1 7 35 124 132 229 159 256 124 250 126 259 183 273 360 324 14 291 271 197 194 257 223 148 149 156 214 203 177 187 165 179 232 189 209 274 266 250 256 286 187 143 168 141 179 202 131 152 143 136 146 175 190 254 251 321 295 247 140 167 217 275 293 250 235 238 233 224 225 224 199 201 200 202 199 195 194
316 313 310 273 227 218 235 176 240 334 345 316 104 37 55 194 242 214 208 216 231 357 47 34 323 334 53 77 278 220 326 269 163 225 157 158 155 194 253 299 158 167 129 144 190 177 212 236 246 168 236 211 174 173 172 165 163 193 144 162 175 148 158 196 181 174 196 202 356 158 115 232 177 235 221 223 231 221 231 238 252 190 212 211 206 194 193 194
316 303 284 283 248 233 230 218 147 168 161 130 87 135 190 219 221 195 225 253 287 339 302 345 335 357 311 183 286 7 194 309 164 117 155 129 199 197 186 208 227 146 125 161 251 117 210 222 254 227 207 175 186 187 143 105 134 207 170 87 135 213 141 200 198 165 206 160 70 200 195 196 199 289 304 308 325 221 233 238 199 214 191 190 185 191 194 196
317 317 299 274 259 260 178 179 161 169 167 119 131 193 215 183 205 168 238 181 93 172 296 350 290 276 264 309 317 82 11 189 305 101 205 187 192 195 210 192 187 183 158 195 177 207 90 256 252 285 239 180 197 157 193 150 203 226 125 200 212 172 143 84 68 164 115 52 249 187 315 288 311 315 281 336 312 273 254 234 194 215 187 172 194 195 193 194
327 328 340 305 272 170 148 153 164 156 180 141 160 225 192 254 190 190 258 147 208 139 50 76 291 166 272 277 252 4 349 35 351 70 277 199 285 203 215 249 176 186 197 158 268 189 161 232 267 180 239 254 198 174 181 199 144 108 179 222 140 95 107 140 209 354 81 186 254 124 194 216 113 271 295 246 253 258 255 245 219 195 148 185 199 195 191 193
321 304 264 271 266 95 140 156 146 165 135 152 212 218 205 212 243 200 199 46 23 39 96 128 279 137 282 52 315 346 336 39 289 31 278 197 252 212 187 215 195 185 204 203 195 252 148 263 284 217 206 218 150 162 273 271 188 187 198 177 153 221 246 310 111 193 130 228 257 278 241 250 196 229 319 245 216 238 244 246 219 181 188 200 201 197 192 194
283 326 330 344 20 120 139 152 157 153 123 180 215 221 236 232 262 198 219 146 161 134 189 237 171 282 155 254 240 327 69 312 281 89 26 262 186 223 191 189 228 202 195 174 201 200 153 202 289 274 176 222 135 145 218 220 249 39 77 132 263 122 157 142 200 173 155 236 135 289 101 221 213 221 203 226 216 224 234 241 230 212 200 202 200 193 189 190
347 348 290 345 99 116 134 163 151 321 119 197 187 223 191 222 242 241 232 148 272 152 237 203 214 245 284 236 220 267 261 186 219 255 157 263 213 281 197 257 215 213 192 183 203 159 226 158 231 279 254 30 213 198 211 194 174 167 172 196 196 77 221 115 71 136 180 175 188 176 243 273 248 213 198 219 218 219 216 223 228 225 212 208 202 188 184 189
317 173 268 115 148 148 130 102 164 192 191 267 195 228 279 221 306 278 268 202 194 244 194 188 161 182 188 24 317 232 247 234 183 204 196 282 185 299 236 192 174 220 166 200 201 177 200 168 209 226 180 212 233 227 181 168 167 177 176 198 167 134 155 211 251 31 113 136 212 166 235 259 254 182 203 217 220 215 216 211 221 227 218 211 190 180 181 188
337 344 274 86 155 193 4 8 258 233 187 197 207 183 228 238 257 270 265 222 192 254 219 227 235 233 238 250 199 249 248 254 223 212 232 204 250 191 274 209 208 158 146 179 201 211 175 153 185 213 206 224 220 235 203 175 180 189 178 206 184 180 147 162 217 254 10 267 113 162 149 270 243 208 200 214 216 238 245 234 237 237 228 210 195 188 187 189
317 242 283 181 200 298 335 268 273 288 246 238 303 296 252 295 205 232 223 297 284 206 225 203 206 195 233 215 195 209 191 237 181 199 214 208 234 211 244 238 213 203 178 240 212 217 139 150 172 241 280 300 281 298 175 177 137 325 284 288 165 195 191 197 190 181 178 182 131 34 216 250 284 222 227 234 228 243 239 208 223 236 231 203 188 182 188 194
276 283 309 339 338 196 207 220 258 261 267 271 254 254 241 246 203 305 222 246 177 244 205 225 266 196 246 198 198 224 186 221 240 209 266 222 256 230 242 257 229 212 171 207 193 183 191 276 159 196 270 244 274 325 306 354 169 190 191 200 183 182 169 101 85 76 207 203 176 153 225 274 270 338 296 222 208 222 229 238 231 235 221 190 191 195 195 198
287 246 235 290 295 172 197 227 216 280 294 325 309 296 288 238 213 217 215 234 217 226 240 254 228 189 223 190 215 220 219 193 281 289 244 220 249 266 290 205 238 224 226 207 188 156 197 185 154 201 198 210 213 210 216 225 213 245 227 181 185 177 167 126 219 181 217 269 145 170 236 246 269 313 294 249 204 235 248 239 229 226 214 196 196 198 200 194
337 336 291 296 355 328 269 342 74 345 328 346 322 262 220 243 290 237 201 246 217 225 214 238 271 227 238 232 243 233 243 215 188 260 287 280 286 299 221 326 299 228 243 229 191 147 186 194 183 189 195 211 216 209 234 133 113 194 219 185 200 199 182 177 130 156 207 211 185 226 178 214 259 250 252 256 204 215 228 220 214 215 214 206 198 203 203 192
310 210 317 327 322 8 54 30 32 31 345 324 281 287 277 213 244 296 184 232 229 200 237 203 221 216 231 216 229 250 217 239 231 236 245 243 233 242 308 282 278 264 343 229 157 120 88 203 225 201 205 214 208 209 195 170 179 199 193 210 198 181 179 170 170 216 169 120 235 263 211 177 223 230 233 239 238 246 235 220 227 233 214 200 199 179 142 165
293 266 43 68 281 278 356 313 11 335 272 286 256 289 263 271 270 235 318 248 319 190 189 293 218 218 212 205 191 221 206 221 226 235 232 237 257 317 332 315 282 310 10 343 175 170 156 199 227 178 236 228 223 221 185 188 188 189 193 194 196 200 162 181 207 202 143 194 217 232 179 196 228 217 215 215 204 203 203 206 207 206 183 129 133 168 185 191
272 318 293 355 275 295 263 297 317 286 293 266 259 271 287 270 265 274 321 309 323 278 164 244 254 231 231 237 200 232 188 202 242 236 209 227 203 204 344 330 309 33 23 15 2 17 166 226 206 186 222 236 237 235 203 186 219 228 218 210 205 178 189 192 210 198 184 205 209 208 179 207 208 217 216 223 216 203 200 152 103 166 188 187 176 180 190 192
353 352 324 0 293 288 289 291 270 305 300 281 258 251 307 299 338 350 326 290 302 283 279 226 270 293 275 253 220 218 210 206 197 213 230 199 268 137 208 198 256 321 21 341 270 359 129 284 187 178 212 240 237 231 225 201 207 230 238 232 226 204 199 206 212 187 189 280 312 168 185 232 249 221 221 240 86 97 114 176 196 194 164 178 186 192 196 196
313 289 285 320 313 269 267 264 283 305 307 286 215 329 337 329 5 349 292 231 215 230 355 303 296 309 291 230 227 223 241 252 275 261 263 228 214 211 147 274 160 335 336 334 38 318 120 256 29 93 197 280 235 216 227 208 209 225 244 243 233 202 205 198 198 200 163 207 209 139 198 244 257 239 184 136 144 161 190 193 187 187 183 177 189 203 201 188
318 288 283 279 271 299 318 298 292 301 260 255 12 359 334 299 317 330 314 260 228 236 231 344 314 314 284 272 262 359 325 300 279 273 263 271 299 296 160 175 72 240 301 288 275 275 155 119 6 53 210 262 253 190 212 186 157 271 254 242 222 212 209 223 226 174 203 168 157 187 230 221 225 182 166 208 179 199 205 198 204 209 195 186 195 196 181 180